This is the latest recevied weather packets stored in our database for station/object KE5AKC. If no packets are shown the sender has not sent any weather packets the latest 10 day(s).
| Time | Temp. | Humidity | Pressure | Rain* | Wind** | Luminosity | Snow |
|---|---|---|---|---|---|---|---|
| 1777675793 | 15° C | 96% | 1011.3 hPa | 0.76 mm | - | 37 W/m² | - |
| 1777675491 | 15° C | 96% | 1011.3 hPa | 0.76 mm | - | 45 W/m² | - |
| 1777675188 | 15° C | 96% | 1011 hPa | 0.76 mm | - | 96 W/m² | - |
| 1777674884 | 15.56° C | 96% | 1011 hPa | 0.76 mm | - | 88 W/m² | - |
| 1777674580 | 15.56° C | 96% | 1011 hPa | 0.51 mm | - | 75 W/m² | - |
| 1777674278 | 15.56° C | 96% | 1011 hPa | 0.51 mm | - | 73 W/m² | - |
| 1777673974 | 15.56° C | 96% | 1011.3 hPa | 0.51 mm | - | 126 W/m² | - |
| 1777673671 | 15.56° C | 96% | 1011.3 hPa | 0.51 mm | - | 195 W/m² | - |
| 1777673368 | 15.56° C | 96% | 1011.7 hPa | 0.51 mm | - | 118 W/m² | - |
| 1777673066 | 15.56° C | 97% | 1011.3 hPa | 0.25 mm | - | 299 W/m² | - |
| 1777672761 | 15.56° C | 96% | 1011.3 hPa | 5.08 mm | - | 282 W/m² | - |
| 1777672459 | 15.56° C | 96% | 1011.7 hPa | 4.57 mm | - | 115 W/m² | - |
| 1777672154 | 15.56° C | 97% | 1011.7 hPa | 4.06 mm | - | 66 W/m² | - |
| 1777671849 | 15.56° C | 96% | 1011.7 hPa | 3.56 mm | - | 38 W/m² | - |
| 1777671545 | 15.56° C | 97% | 1011.3 hPa | 2.79 mm | - | 14 W/m² | - |
| 1777671242 | 15.56° C | 97% | 1011 hPa | 2.54 mm | - | 18 W/m² | - |
| 1777670937 | 15.56° C | 97% | 1010.7 hPa | 2.29 mm | - | 23 W/m² | - |
| 1777670635 | 15.56° C | 96% | 1010.7 hPa | 2.03 mm | - | 15 W/m² | - |
| 1777670331 | 15.56° C | 97% | 1010.3 hPa | 1.52 mm | - | 13 W/m² | - |
| 1777670029 | 15.56° C | 97% | 1010 hPa | 1.02 mm | - | 17 W/m² | - |
| 1777669726 | 15.56° C | 97% | 1009.3 hPa | 0.51 mm | - | 14 W/m² | - |
| 1777669423 | 16.11° C | 96% | 1010 hPa | 0 mm | - | 21 W/m² | - |
| 1777669119 | 16.11° C | 97% | 1010.7 hPa | 3.81 mm | - | 14 W/m² | - |
| 1777668817 | 16.11° C | 97% | 1010.7 hPa | 3.3 mm | - | 22 W/m² | - |
| 1777668513 | 16.11° C | 97% | 1010.7 hPa | 2.54 mm | - | 17 W/m² | - |
* Rain latest hour (hover to see other rain measurements)
** Current wind speed in m/s (hover to see current wind gust speed)